World > North America > United States > Virginia

Hourly Millers, VA Regional Weather

Feedback E-mail the Weather

Quick WX

Millers, VA Weather Maps

°F °C°F °C
Millers Weather Map
UTC Time: 7/6/2022, 22:31
Your Time:

Millers, VA Regional Weather

Expires:202207062100;;803254
ASUS41 KAKQ 062015
RWRAKQ

REGIONAL WEATHER ROUNDUP
NATIONAL WEATHER SERVICE WAKEFIELD VA
400 PM EDT WED JUL 06 2022

Note: "fair" indicates few or no clouds below 12,000 feet with no
significant weather and/or obstructions to visibility. * = Denotes
station may not report precipitation (e.g., rain,snow,etc.),
thunder or fog.


VAZ088>098-062100-
SOUTHEAST VIRGINIA
  
CITY           SKY/WX    TMP DP  RH WIND       PRES   REMARKS
NORFOLK        MOSUNNY   89  70  53 NE10      29.87F                  
VIRGINIA BEACH PTSUNNY   90  68  48 E9        29.87F                  
NORFOLK NAVAL  PTSUNNY   92  69  47 E7        29.90F HX  97           
WEST POINT*    MOSUNNY   87  76  71 CALM      29.90F HX  98           
SALUDA*        FAIR      90  76  62 SW3       29.89F HX 101           
NEWPORT NEWS   MOSUNNY   91  74  57 S8        29.88F HX 100           
LANGLEY AFB    MOSUNNY   90  72  55 SE9       29.87F HX  98           
FORT EUSTIS    PTSUNNY   93  74  54 S3        29.86F HX 103           
WILLIAMSBURG*  MOSUNNY   95  75  52 CALM      29.89F HX 107           
HR EXEC AP*    FAIR      94  73  50 SW6       29.89F HX 103           
FRANKLIN*      MOSUNNY   94  70  44 W6        29.88F HX 100           
US460-WAKEFLD  MOSUNNY   93  71  48 S8        29.88F HX 100           
$$


SKY/WX - Weather  TMP - Temperature  DP - Dew Point  RH - Humidity
WIND - Wind Direction/Speed PRES - Barometric Pressure VSB - Visibility
WCI - Wind Chill Index E13G22 Wind - East Wind 13 mph/Gusts of 22 mph

Trending Headlines

Millers Radar Loop



Millers Quick Facts


National Two Day Weather Forecast


E-mail the Millers Weather Forecast

Voice your opinion or tell us about page issues...